Weather History for KEIK - October, 2013

Change the Weather History Date:

Wednesday, October 16, 2013

  Actual Average (KBJC) Record (KBJC)
Temperature  
Mean Temperature 40 °F -  
Max Temperature 53 °F 63 °F 89 °F (1991)
Min Temperature 26 °F 39 °F 13 °F (1988)
Degree Days  
Heating Degree Days 26    
Moisture  
Dew Point 29 °F    
Average Humidity 71    
Maximum Humidity 98    
Minimum Humidity 31    
Precipitation  
Precipitation 0.00 in - - ()
Sea Level Pressure  
Sea Level Pressure 30.08 in    
Wind  
Wind Speed 2 mph (SE)    
Max Wind Speed 7 mph    
Max Gust Speed -    
Visibility 10 miles    
Events      
Averages and records for this station are not official NWS values.
T = Trace of Precipitation, MM = Missing Value Source: NWS Daily Summary

Daily Weather History Graph

Daily Weather History Graph

Search for Another Location

Airport or City:

Trip Planner

Search our weather history database for the weather conditions in past years. The results will help you decide how hot, cold, wet, or windy it might be!

Date:

Astronomy

Oct. 16, 2013 Rise Set
Actual Time 7:12 AM MDT 6:18 PM MDT
Civil Twilight 6:44 AM MDT 6:45 PM MDT
Nautical Twilight 6:13 AM MDT 7:17 PM MDT
Astronomical Twilight 5:41 AM MDT 7:48 PM MDT
Moon 4:59 PM MDT (10/16) 4:42 AM MDT (10/16)
Length of Visible Light 12h 01m
Length of Day
11h 06m
Waxing Gibbous, 94% of the Moon is Illuminated
Oct 16
Waxing Gibbous
Oct 18
Full
Oct 26
Last Quarter
Nov 3
New
Nov 9
First Quarter

Hourly Weather History & Observations

Time (MDT) Temp. Windchill Dew Point Humidity Pressure Visibility Wind Dir Wind Speed Gust Speed Precip Events Conditions
12:14 AM 36.5 °F 33.9 °F 29.5 °F 76% 30.21 in 10.0 mi SSE 3.5 mph - N/A   Overcast
12:34 AM 36.5 °F 33.9 °F 28.8 °F 74% 30.20 in 10.0 mi SE 3.5 mph - N/A   Overcast
12:54 AM 36.1 °F 33.5 °F 28.9 °F 75% 30.20 in 10.0 mi SE 3.5 mph - N/A   Overcast
1:14 AM 36.5 °F - 28.9 °F 74% 30.19 in 10.0 mi Calm Calm - N/A   Overcast
1:34 AM 35.6 °F - 28.4 °F 75% 30.18 in 10.0 mi Calm Calm - N/A   Scattered Clouds
1:54 AM 33.3 °F - 28.4 °F 82% 30.17 in 10.0 mi Calm Calm - N/A   Clear
2:14 AM 32.9 °F - 29.3 °F 87% 30.16 in 10.0 mi Calm Calm - N/A   Clear
2:34 AM 33.3 °F - 29.3 °F 85% 30.16 in 10.0 mi Calm Calm - N/A   Clear
2:54 AM 32.0 °F - 29.1 °F 89% 30.15 in 10.0 mi Calm Calm - N/A   Clear
3:14 AM 32.0 °F - 28.8 °F 88% 30.14 in 10.0 mi Calm Calm - N/A   Clear
3:34 AM 32.0 °F - 28.9 °F 88% 30.12 in 10.0 mi Calm Calm - N/A   Clear
3:54 AM 29.5 °F - 27.3 °F 92% 30.12 in 10.0 mi Calm Calm - N/A   Clear
4:14 AM 29.8 °F - 28.4 °F 94% 30.13 in 10.0 mi Calm Calm - N/A   Clear
4:34 AM 29.3 °F - 28.0 °F 95% 30.12 in 10.0 mi Calm Calm - N/A   Clear
4:54 AM 29.3 °F - 28.4 °F 96% 30.12 in 10.0 mi Calm Calm - N/A   Clear
5:14 AM 28.4 °F - 27.0 °F 94% 30.11 in 10.0 mi Calm Calm - N/A   Clear
5:34 AM 28.9 °F - 27.3 °F 94% 30.11 in 10.0 mi Calm Calm - N/A   Clear
5:54 AM 28.4 °F - 27.1 °F 95% 30.12 in 10.0 mi Calm Calm - N/A   Clear
6:14 AM 27.5 °F - 26.8 °F 97% 30.12 in 10.0 mi Calm Calm - N/A   Clear
6:34 AM 27.5 °F - 27.0 °F 98% 30.12 in 10.0 mi Calm Calm - N/A   Clear
6:54 AM 27.3 °F - 26.4 °F 96% 30.12 in 10.0 mi Calm Calm - N/A   Clear
7:14 AM 27.0 °F - 26.4 °F 98% 30.13 in 7.0 mi Calm Calm - N/A   Clear
7:34 AM 26.8 °F - 26.2 °F 98% 30.13 in 7.0 mi Calm Calm - N/A   Clear
7:54 AM 28.0 °F - 27.1 °F 96% 30.13 in 7.0 mi Calm Calm - N/A   Clear
8:14 AM 29.8 °F - 29.1 °F 97% 30.13 in 7.0 mi Calm Calm - N/A   Clear
8:34 AM 31.3 °F - 30.2 °F 96% 30.13 in 7.0 mi Calm Calm - N/A   Clear
8:54 AM 32.0 °F - 30.6 °F 94% 30.13 in 10.0 mi Calm Calm - N/A   Clear
9:14 AM 33.1 °F - 30.9 °F 92% 30.12 in 10.0 mi Calm Calm - N/A   Clear
9:34 AM 34.9 °F - 30.7 °F 85% 30.12 in 10.0 mi Calm Calm - N/A   Clear
9:54 AM 37.8 °F - 31.5 °F 78% 30.12 in 10.0 mi Calm Calm - N/A   Clear
10:14 AM 39.2 °F - 31.1 °F 73% 30.11 in 10.0 mi Calm Calm - N/A   Clear
10:34 AM 41.2 °F - 31.5 °F 68% 30.10 in 10.0 mi Calm Calm - N/A   Clear
10:54 AM 42.1 °F - 31.3 °F 66% 30.09 in 10.0 mi Calm Calm - N/A   Clear
11:14 AM 43.3 °F - 31.5 °F 63% 30.08 in 10.0 mi Calm Calm - N/A   Clear
11:34 AM 44.6 °F 43.1 °F 31.6 °F 60% 30.08 in 10.0 mi SE 3.5 mph - N/A   Clear
11:54 AM 46.6 °F - 31.5 °F 56% 30.07 in 10.0 mi Calm Calm - N/A   Clear
12:14 PM 47.3 °F - 29.7 °F 50% 30.07 in 10.0 mi Calm Calm - N/A   Clear
12:34 PM 48.7 °F - 31.3 °F 51% 30.06 in 10.0 mi East 4.6 mph - N/A   Clear
12:54 PM 48.9 °F - 30.7 °F 50% 30.05 in 10.0 mi NE 3.5 mph - N/A   Clear
1:14 PM 50.0 °F - 30.0 °F 46% 30.04 in 10.0 mi ESE 3.5 mph - N/A   Clear
1:34 PM 50.5 °F - 31.3 °F 48% 30.04 in 10.0 mi East 3.5 mph - N/A   Clear
1:54 PM 50.0 °F - 30.4 °F 47% 30.04 in 10.0 mi Calm Calm - N/A   Clear
2:14 PM 51.6 °F - 30.4 °F 44% 30.03 in 10.0 mi ENE 5.8 mph - N/A   Clear
2:34 PM 51.1 °F - 29.8 °F 44% 30.02 in 10.0 mi East 4.6 mph - N/A   Clear
2:54 PM 52.7 °F - 30.0 °F 42% 30.02 in 10.0 mi SSE 3.5 mph - N/A   Clear
3:14 PM 52.9 °F - 26.6 °F 36% 30.02 in 10.0 mi East 4.6 mph - N/A   Clear
3:34 PM 53.1 °F - 24.8 °F 33% 30.01 in 10.0 mi Calm Calm - N/A   Clear
3:54 PM 53.1 °F - 24.1 °F 32% 30.01 in 10.0 mi East 5.8 mph - N/A   Clear
4:14 PM 53.6 °F - 24.3 °F 32% 30.01 in 10.0 mi SE 5.8 mph - N/A   Clear
4:34 PM 53.1 °F - 25.2 °F 34% 30.01 in 10.0 mi East 6.9 mph - N/A   Clear
4:54 PM 53.6 °F - 23.5 °F 31% 30.01 in 10.0 mi ENE 3.5 mph - N/A   Clear
5:14 PM 53.1 °F - 24.8 °F 33% 30.01 in 10.0 mi SE 3.5 mph - N/A   Clear
5:34 PM 52.7 °F - 24.1 °F 33% 30.01 in 10.0 mi ESE 4.6 mph - N/A   Clear
5:54 PM 50.2 °F - 27.5 °F 42% 30.01 in 10.0 mi SE 3.5 mph - N/A   Clear
6:14 PM 48.9 °F - 26.6 °F 42% 30.01 in 10.0 mi Calm Calm - N/A   Clear
6:34 PM 46.6 °F - 27.5 °F 47% 30.02 in 10.0 mi Calm Calm - N/A   Clear
6:54 PM 44.1 °F - 30.6 °F 59% 30.02 in 10.0 mi Calm Calm - N/A   Clear
7:34 PM 39.6 °F - 31.6 °F 73% 30.04 in 10.0 mi Calm Calm - N/A   Clear
7:54 PM 37.8 °F 35.3 °F 31.6 °F 79% 30.04 in 10.0 mi SSW 3.5 mph - N/A   Clear
8:14 PM 37.8 °F - 31.6 °F 79% 30.04 in 10.0 mi Calm Calm - N/A   Clear
8:34 PM 38.7 °F 35.2 °F 30.4 °F 72% 30.04 in 10.0 mi SW 4.6 mph - N/A   Clear
8:54 PM 37.8 °F 35.3 °F 31.1 °F 77% 30.04 in 10.0 mi SSW 3.5 mph - N/A   Clear
9:14 PM 37.4 °F 34.9 °F 30.9 °F 77% 30.04 in 10.0 mi SSW 3.5 mph - N/A   Clear
9:34 PM 38.8 °F - 28.2 °F 66% 30.04 in 10.0 mi Calm Calm - N/A   Clear
9:54 PM 36.5 °F - 30.2 °F 78% 30.04 in 10.0 mi Calm Calm - N/A   Clear
10:14 PM 36.0 °F 33.3 °F 30.2 °F 80% 30.04 in 10.0 mi SW 3.5 mph - N/A   Clear
10:34 PM 36.3 °F 32.5 °F 30.2 °F 78% 30.05 in 10.0 mi SW 4.6 mph - N/A   Clear
10:54 PM 35.1 °F - 30.0 °F 82% 30.04 in 10.0 mi Calm Calm - N/A   Clear
11:14 PM 36.0 °F - 29.3 °F 77% 30.05 in 10.0 mi Calm Calm - N/A   Clear
11:34 PM 34.3 °F - 29.3 °F 82% 30.04 in 10.0 mi Calm Calm - N/A   Clear
11:54 PM 35.4 °F 32.6 °F 29.1 °F 78% 30.04 in 10.0 mi SSE 3.5 mph - N/A   Clear